星链-37437(STARLINK-37437)

导读

STARLINK-37437(NORAD编号69170)是SpaceX星链(Starlink)互联网星座中的一颗低轨通信卫星,隶属于SpaceX打造全球天基互联网系统的组网卫星之一。星链项目旨在通过大规模低轨卫星星座部署,为全球提供低成本、高速率的互联网接入服务。该卫星运行于近地轨道,完成在轨部署后参与星座组网,为地面用户提供通信中继服务,其轨道数据可通过航天跟踪平台获取,是星链星座持续扩容过程中发射的组网卫星,支撑星链系统全球覆盖能力的不断完善。

Basic Information
目录编号:
69170
目录名称:
STARLINK-37437
国际标识:
2026-111Y
轨道中心:
EARTH
卫星名称:
星链-37437
卫星全名:
星链-37437(STARLINK-37437)
卫星状态:
在轨 (已飞行106 天)
发射日期:
2026-05-21 UTC
国别 :
美国 (US)
星等 :
--
Orbit Information
数据来源 国际轨道数据
星历时间: 2026-09-02T19:23:11+0800
1天前
查看轨道信息
半长轴: 6840.902km
偏心率: 0.0001047
轨道倾角: 53.158°
近地点辐角 91.694°
升交点赤经 149.821°
平近点角 268.418°
近地点: 462.048km
远地点: 463.482km
周期: 93.849分钟
每日圈数: 15.343794
Detailed Information
固有亮度:
5
最大亮度:
2.5
卫星平台:
Starlink V1.0
覆盖范围:
全球
运营商:
太空探索技术公司
运营商所在国:
美国
制造商(研发单位):
太空探索技术公司
制造商所在国:
美国
使用方式:
暂无
Satellite Introduction
Starlink 计划是 SpaceX 推出的全球卫星互联网项目,通过发射低轨道卫星,为全球尤其是偏远地区提供高速、低延迟的互联网服务。自 2019 年起,Starlink 已部署数千颗卫星,旨在缩小全球数字鸿沟,推动互联网普及。该项目还为军事、航空等行业提供通信支持,带来广泛经济效益。
2D Orbit Map
3D Orbit Map
Orbit Altitude Analysis Chart
Orbit Inclination Analysis Chart
Orbit Comprehensive Analysis Chart
View Comprehensive Chart
Conjunction Data List
Event ID Objects TCA Miss Dist (km) Collision Risk Probability Collision Risk Index (CRI) Action
CDM_260905-061805-888706-917021
2026-09-05T
06:18:33+0000
0.771 km
远距离
3.765742E-5 中风险 0.67
CDM_260827-212505-888706-917021
2026-08-27T
21:25:46+0000
1.134 km
极远距离
1.020496E-5 中风险 0.55
CDM_260829-213906-917006-995321
2026-08-29T
21:39:30+0000
2.017 km
极远距离
2.020259E-6 低风险 0.41
CDM_260902-104105-210806-917021
2026-09-02T
10:41:12+0000
2.634 km
极远距离
1.417468E-6 低风险 0.38
CDM_260827-225905-888706-917021
2026-08-27T
22:59:33+0000
2.302 km
极远距离
1.301906E-6 低风险 0.37
CDM_260904-172605-300706-917021
2026-09-04T
17:26:56+0000
2.794 km
极远距离
1.270827E-6 低风险 0.37
CDM_260903-185205-253506-917021
2026-09-03T
18:52:45+0000
2.925 km
极远距离
1.080998E-6 低风险 0.36
CDM_260905-021105-267606-917021
2026-09-05T
02:11:38+0000
2.915 km
极远距离
9.533047E-7 极低风险 0.35
CDM_260829-215405-175606-917022
2026-08-29T
21:54:06+0000
2.994 km
极远距离
9.066004E-7 极低风险 0.34